,,,PA_Meas_PMT16A,,PR_Meas_QMR101_102,,RH_Meas_QMH101,,SR_Meas_QMS101,,TA_Meas_QMH101,,GenWind,,GenWind,
date,time,status,PA,status,PR,status,RH,status,SR,status,TA,status,DirAvg,status,SpdAvg,
2010-09-19, 00:00:04,VALID,1000.49,VALID,0,VALID,91.6394,VALID,0,VALID,23.1939,VALID,110,VALID,0.382813,
2010-09-19, 00:01:04,VALID,1000.49,VALID,0,VALID,91.647,VALID,0,VALID,23.2134,VALID,108,VALID,0.534375,
2010-09-19, 00:02:04,VALID,1000.49,VALID,0,VALID,91.6012,VALID,0,VALID,23.2134,VALID,102,VALID,0.458594,
2010-09-19, 00:03:04,VALID,1000.45,VALID,0,VALID,91.4486,VALID,0,VALID,23.2329,VALID,136,VALID,0.396484,
2010-09-19, 00:04:04,VALID,1000.44,VALID,0,VALID,91.0824,VALID,0,VALID,23.2719,VALID,133,VALID,0.528906,
2010-09-19, 00:05:04,VALID,1000.41,VALID,0,VALID,90.6323,VALID,0,VALID,23.2932,VALID,124,VALID,0.664453,
2010-09-19, 00:06:04,VALID,1000.35,VALID,0,VALID,90.4186,VALID,0,VALID,23.2915,VALID,131,VALID,1.15352,
2010-09-19, 00:07:04,VALID,1000.33,VALID,0,VALID,90.1363,VALID,0,VALID,23.3908,VALID,131,VALID,0.855078,
2010-09-19, 00:08:04,VALID,1000.28,VALID,0,VALID,89.7472,VALID,0,VALID,23.428,VALID,131,VALID,0.736719,
2010-09-19, 00:09:04,VALID,1000.3,VALID,0,VALID,89.5031,VALID,0,VALID,23.4475,VALID,131,VALID,1.06523,
2010-09-19, 00:10:04,VALID,1000.31,VALID,0,VALID,89.1979,VALID,0,VALID,23.4884,VALID,131,VALID,0.817578,
2010-09-19, 00:11:04,VALID,1000.27,VALID,0,VALID,89.0834,VALID,0,VALID,23.4884,VALID,131,VALID,0.545313,
2010-09-19, 00:12:04,VALID,1000.27,VALID,0,VALID,88.9843,VALID,0,VALID,23.4866,VALID,131,VALID,0.752344,
2010-09-19, 00:13:04,VALID,1000.26,VALID,0,VALID,88.9537,VALID,0,VALID,23.5079,VALID,131,VALID,0.520312,
2010-09-19, 00:14:04,VALID,1000.24,VALID,0,VALID,88.9614,VALID,0,VALID,23.4866,VALID,131,VALID,0.284375,
2010-09-19, 00:15:04,VALID,1000.22,VALID,0,VALID,88.8774,VALID,0,VALID,23.4671,VALID,131,VALID,0.18125,
2010-09-19, 00:16:04,VALID,1000.22,VALID,0,VALID,89.03,VALID,0,VALID,23.4688,VALID,131,VALID,0.16875,
2010-09-19, 00:17:04,VALID,1000.23,VALID,0,VALID,89.0453,VALID,0,VALID,23.4085,VALID,131,VALID,0.0414063,
2010-09-19, 00:18:04,VALID,1000.32,VALID,0,VALID,89.175,VALID,0,VALID,23.389,VALID,131,VALID,0,
2010-09-19, 00:19:04,VALID,1000.38,VALID,0,VALID,89.6633,VALID,0,VALID,23.3695,VALID,131,VALID,0.283594,
2010-09-19, 00:20:04,VALID,1000.43,VALID,0,VALID,89.7777,VALID,0,VALID,23.3695,VALID,108,VALID,0.498047,
2010-09-19, 00:21:04,VALID,1000.53,VALID,0,VALID,89.8006,VALID,0,VALID,23.3695,VALID,72,VALID,0.85625,
2010-09-19, 00:22:04,VALID,1000.51,VALID,0,VALID,90.0371,VALID,0,VALID,23.35,VALID,72,VALID,1.00977,
2010-09-19, 00:23:04,VALID,1000.53,VALID,0,VALID,90.0371,VALID,0,VALID,23.35,VALID,72,VALID,0.837891,
2010-09-19, 00:24:04,VALID,1000.58,VALID,0,VALID,90.205,VALID,0,VALID,23.3713,VALID,71,VALID,0.998438,
2010-09-19, 00:25:04,VALID,1000.57,VALID,0,VALID,90.0906,VALID,0,VALID,23.3305,VALID,63,VALID,0.811719,
2010-09-19, 00:26:04,VALID,1000.54,VALID,0,VALID,90.06,VALID,0,VALID,23.3323,VALID,63,VALID,0.911328,
2010-09-19, 00:27:04,VALID,1000.48,VALID,0,VALID,90.1363,VALID,0,VALID,23.2524,VALID,51,VALID,0.698438,
2010-09-19, 00:28:04,VALID,1000.45,VALID,0,VALID,90.3576,VALID,0,VALID,23.2524,VALID,48,VALID,0.521875,
2010-09-19, 00:29:04,VALID,1000.43,VALID,0,VALID,90.5102,VALID,0,VALID,23.2134,VALID,48,VALID,0.54375,
2010-09-19, 00:30:04,VALID,1000.42,VALID,0,VALID,90.678,VALID,0,VALID,23.1939,VALID,39,VALID,0.579297,
2010-09-19, 00:31:04,VALID,1000.42,VALID,0,VALID,90.8306,VALID,0,VALID,23.1549,VALID,38,VALID,0.591016,
2010-09-19, 00:32:04,VALID,1000.43,VALID,0,VALID,91.0061,VALID,0,VALID,23.1159,VALID,38,VALID,0.532031,
2010-09-19, 00:33:04,VALID,1000.45,VALID,0,VALID,91.1358,VALID,0,VALID,23.0964,VALID,38,VALID,0.467578,
2010-09-19, 00:34:04,VALID,1000.44,VALID,0,VALID,91.1663,VALID,0,VALID,23.0573,VALID,38,VALID,0.269141,
2010-09-19, 00:35:04,VALID,1000.37,VALID,0,VALID,91.2426,VALID,0,VALID,23.0183,VALID,38,VALID,0,
2010-09-19, 00:36:04,VALID,1000.33,VALID,0,VALID,91.296,VALID,0,VALID,22.9988,VALID,38,VALID,0,
2010-09-19, 00:37:04,VALID,1000.26,VALID,0,VALID,91.4105,VALID,0,VALID,23.0006,VALID,38,VALID,0,
2010-09-19, 00:38:04,VALID,1000.23,VALID,0,VALID,91.586,VALID,0,VALID,23.0201,VALID,38,VALID,0,
2010-09-19, 00:39:04,VALID,1000.22,VALID,0,VALID,91.8072,VALID,0,VALID,23.0201,VALID,38,VALID,0.0390625,
2010-09-19, 00:40:04,VALID,1000.22,VALID,0,VALID,91.9903,VALID,0,VALID,23.0183,VALID,38,VALID,0.391797,
2010-09-19, 00:41:04,VALID,1000.22,VALID,0,VALID,92.1124,VALID,0,VALID,23.0378,VALID,38,VALID,0.451953,
2010-09-19, 00:42:04,VALID,1000.23,VALID,0,VALID,92.1734,VALID,0,VALID,23.0573,VALID,349,VALID,0.735547,
2010-09-19, 00:43:04,VALID,1000.23,VALID,0,VALID,92.2116,VALID,0,VALID,23.0573,VALID,349,VALID,0.789844,
2010-09-19, 00:44:04,VALID,1000.24,VALID,0,VALID,92.1811,VALID,0,VALID,23.0573,VALID,344,VALID,0.671484,
2010-09-19, 00:45:04,VALID,1000.22,VALID,0,VALID,92.1734,VALID,0,VALID,23.0573,VALID,344,VALID,0.621484,
2010-09-19, 00:46:04,VALID,1000.23,VALID,0,VALID,92.1658,VALID,0,VALID,23.0769,VALID,344,VALID,0.54375,
2010-09-19, 00:47:04,VALID,1000.2,VALID,0,VALID,92.1658,VALID,0,VALID,23.0573,VALID,344,VALID,0.3375,
2010-09-19, 00:48:04,VALID,1000.22,VALID,0,VALID,92.1429,VALID,0,VALID,23.0769,VALID,331,VALID,0.289063,
2010-09-19, 00:49:04,VALID,1000.21,VALID,0,VALID,92.0971,VALID,0,VALID,23.0573,VALID,331,VALID,0,
2010-09-19, 00:50:04,VALID,1000.18,VALID,0,VALID,92.0666,VALID,0,VALID,23.0378,VALID,331,VALID,0,
2010-09-19, 00:51:04,VALID,1000.16,VALID,0,VALID,92.0819,VALID,0,VALID,23.0378,VALID,331,VALID,0.158984,
2010-09-19, 00:52:04,VALID,1000.21,VALID,0,VALID,92.1353,VALID,0,VALID,23.0591,VALID,331,VALID,0.263672,
2010-09-19, 00:53:04,VALID,1000.18,VALID,0,VALID,92.204,VALID,0,VALID,23.0378,VALID,331,VALID,0.335156,
2010-09-19, 00:54:04,VALID,1000.2,VALID,0,VALID,92.2421,VALID,0,VALID,23.0786,VALID,331,VALID,0.242969,
2010-09-19, 00:55:04,VALID,1000.17,VALID,0,VALID,92.2497,VALID,0,VALID,23.0396,VALID,331,VALID,0.0878906,
2010-09-19, 00:56:04,VALID,1000.17,VALID,0,VALID,92.2726,VALID,0,VALID,23.0183,VALID,331,VALID,0,
2010-09-19, 00:57:04,VALID,1000.13,VALID,0,VALID,92.3108,VALID,0,VALID,23.0378,VALID,331,VALID,0,
2010-09-19, 00:58:04,VALID,1000.08,VALID,0,VALID,92.3337,VALID,0,VALID,23.0378,VALID,331,VALID,0,
2010-09-19, 00:59:04,VALID,1000.08,VALID,0,VALID,92.3794,VALID,0,VALID,23.0573,VALID,331,VALID,0.399219,
2010-09-19, 01:00:04,VALID,1000.04,VALID,0,VALID,92.4176,VALID,0,VALID,23.0964,VALID,331,VALID,0.537891,
2010-09-19, 01:01:04,VALID,1000.02,VALID,0,VALID,92.4481,VALID,0,VALID,23.1159,VALID,331,VALID,0.554297,
2010-09-19, 01:02:04,VALID,999.994,VALID,0,VALID,92.4481,VALID,0,VALID,23.1354,VALID,331,VALID,0.376172,
2010-09-19, 01:03:04,VALID,999.957,VALID,0,VALID,92.41,VALID,0,VALID,23.1744,VALID,331,VALID,0.183984,
2010-09-19, 01:04:04,VALID,999.942,VALID,0,VALID,92.3566,VALID,0,VALID,23.2134,VALID,331,VALID,0.197266,
2010-09-19, 01:05:04,VALID,999.903,VALID,0,VALID,92.3031,VALID,0,VALID,23.2329,VALID,331,VALID,0.0207031,
2010-09-19, 01:06:04,VALID,999.851,VALID,0,VALID,92.204,VALID,0,VALID,23.2134,VALID,331,VALID,0.139062,
2010-09-19, 01:07:04,VALID,999.874,VALID,0,VALID,92.0971,VALID,0,VALID,23.2524,VALID,331,VALID,0.0867188,
2010-09-19, 01:08:04,VALID,999.814,VALID,0,VALID,91.9369,VALID,0,VALID,23.2524,VALID,331,VALID,0.250781,
2010-09-19, 01:09:04,VALID,999.845,VALID,0,VALID,91.2655,VALID,0,VALID,23.2134,VALID,176,VALID,0.883984,
2010-09-19, 01:10:04,VALID,999.814,VALID,0,VALID,88.1679,VALID,0,VALID,23.3305,VALID,149,VALID,0.921484,
2010-09-19, 01:11:05,VALID,999.779,VALID,0,VALID,86.7106,VALID,0,VALID,23.428,VALID,170,VALID,0.960156,
2010-09-19, 01:12:05,VALID,999.8,VALID,0,VALID,85.5357,VALID,0,VALID,23.5646,VALID,181,VALID,1.40078,
2010-09-19, 01:13:05,VALID,999.786,VALID,0,VALID,85.2381,VALID,0,VALID,23.6817,VALID,184,VALID,0.843359,
2010-09-19, 01:14:05,VALID,999.79,VALID,0,VALID,85.0169,VALID,0,VALID,23.7402,VALID,173,VALID,0.835156,
2010-09-19, 01:15:05,VALID,999.799,VALID,0,VALID,85.0092,VALID,0,VALID,23.7597,VALID,153,VALID,0.500781,
2010-09-19, 01:16:05,VALID,999.811,VALID,0,VALID,86.3215,VALID,0,VALID,23.7793,VALID,142,VALID,0.147266,
2010-09-19, 01:17:05,VALID,999.796,VALID,0,VALID,86.1003,VALID,0,VALID,23.7384,VALID,137,VALID,0.436328,
2010-09-19, 01:18:05,VALID,999.796,VALID,0,VALID,85.9553,VALID,0,VALID,23.7207,VALID,126,VALID,0.85625,
2010-09-19, 01:19:05,VALID,999.819,VALID,0,VALID,86.2605,VALID,0,VALID,23.6622,VALID,122,VALID,0.932813,
2010-09-19, 01:20:05,VALID,999.783,VALID,0,VALID,86.5733,VALID,0,VALID,23.5823,VALID,130,VALID,1.31523,
2010-09-19, 01:21:05,VALID,999.788,VALID,0,VALID,87.0463,VALID,0,VALID,23.5646,VALID,132,VALID,1.31992,
2010-09-19, 01:22:05,VALID,999.74,VALID,0,VALID,87.1532,VALID,0,VALID,23.5256,VALID,131,VALID,1.42188,
2010-09-19, 01:23:05,VALID,999.737,VALID,0,VALID,87.2294,VALID,0,VALID,23.4653,VALID,132,VALID,1.24023,
2010-09-19, 01:24:05,VALID,999.715,VALID,0,VALID,87.3057,VALID,0,VALID,23.4866,VALID,133,VALID,1.29297,
2010-09-19, 01:25:05,VALID,999.672,VALID,0,VALID,87.6567,VALID,0,VALID,23.4884,VALID,137,VALID,1.29883,
2010-09-19, 01:26:05,VALID,999.657,VALID,0,VALID,87.9161,VALID,0,VALID,23.4653,VALID,127,VALID,1.00977,
2010-09-19, 01:27:05,VALID,999.658,VALID,0,VALID,88.206,VALID,0,VALID,23.4866,VALID,127,VALID,0.878516,
2010-09-19, 01:28:05,VALID,999.655,VALID,0,VALID,88.4349,VALID,0,VALID,23.4671,VALID,127,VALID,0.683984,
2010-09-19, 01:29:05,VALID,999.626,VALID,0,VALID,88.702,VALID,0,VALID,23.4475,VALID,127,VALID,0.579297,
2010-09-19, 01:30:05,VALID,999.622,VALID,0,VALID,88.8469,VALID,0,VALID,23.428,VALID,127,VALID,0.591797,
2010-09-19, 01:31:05,VALID,999.601,VALID,0,VALID,88.9614,VALID,0,VALID,23.428,VALID,127,VALID,0.669141,
2010-09-19, 01:32:05,VALID,999.61,VALID,0,VALID,88.8622,VALID,0,VALID,23.4085,VALID,127,VALID,0.892187,
2010-09-19, 01:33:05,VALID,999.601,VALID,0,VALID,88.7859,VALID,0,VALID,23.389,VALID,127,VALID,0.691797,
2010-09-19, 01:34:05,VALID,999.6,VALID,0,VALID,88.8546,VALID,0,VALID,23.3695,VALID,127,VALID,0.627734,
2010-09-19, 01:35:05,VALID,999.602,VALID,0,VALID,88.9461,VALID,0,VALID,23.389,VALID,127,VALID,0.278516,
2010-09-19, 01:36:05,VALID,999.587,VALID,0,VALID,88.9385,VALID,0,VALID,23.3482,VALID,127,VALID,0,
2010-09-19, 01:37:05,VALID,999.549,VALID,0,VALID,88.9919,VALID,0,VALID,23.35,VALID,127,VALID,0,
2010-09-19, 01:38:05,VALID,999.568,VALID,0,VALID,89.1521,VALID,0,VALID,23.3287,VALID,127,VALID,0,
2010-09-19, 01:39:05,VALID,999.507,VALID,0,VALID,89.236,VALID,0,VALID,23.3092,VALID,127,VALID,0,
2010-09-19, 01:40:05,VALID,999.473,VALID,0,VALID,89.2894,VALID,0,VALID,23.3305,VALID,127,VALID,0.183594,
2010-09-19, 01:41:05,VALID,999.427,VALID,0,VALID,89.442,VALID,0,VALID,23.2897,VALID,127,VALID,0.525781,
2010-09-19, 01:42:05,VALID,999.401,VALID,0,VALID,89.4726,VALID,0,VALID,23.311,VALID,127,VALID,0.623438,
2010-09-19, 01:43:05,VALID,999.366,VALID,0,VALID,89.587,VALID,0,VALID,23.311,VALID,296,VALID,0.664063,
2010-09-19, 01:44:05,VALID,999.322,VALID,0,VALID,89.732,VALID,0,VALID,23.2897,VALID,296,VALID,0.332422,
2010-09-19, 01:45:05,VALID,999.331,VALID,0,VALID,89.8769,VALID,0,VALID,23.2915,VALID,296,VALID,0.327344,
2010-09-19, 01:46:05,VALID,999.35,VALID,0,VALID,89.9914,VALID,0,VALID,23.311,VALID,296,VALID,0.183203,
2010-09-19, 01:47:05,VALID,999.377,VALID,0,VALID,90.0448,VALID,0,VALID,23.2915,VALID,296,VALID,0.146484,
2010-09-19, 01:48:05,VALID,999.412,VALID,0,VALID,89.8006,VALID,0,VALID,23.2719,VALID,296,VALID,0.439844,
2010-09-19, 01:49:05,VALID,999.42,VALID,0,VALID,89.7243,VALID,0,VALID,23.2329,VALID,6,VALID,0.554297,
2010-09-19, 01:50:05,VALID,999.436,VALID,0,VALID,89.6786,VALID,0,VALID,23.2134,VALID,6,VALID,0.519531,
2010-09-19, 01:51:05,VALID,999.457,VALID,0,VALID,89.5489,VALID,0,VALID,23.2134,VALID,25,VALID,0.685547,
2010-09-19, 01:52:05,VALID,999.484,VALID,0,VALID,88.9385,VALID,0,VALID,23.1726,VALID,98,VALID,0.912891,
2010-09-19, 01:53:05,VALID,999.485,VALID,0,VALID,87.9924,VALID,0,VALID,23.2134,VALID,103,VALID,0.951953,
2010-09-19, 01:54:05,VALID,999.451,VALID,0,VALID,87.3515,VALID,0,VALID,23.2524,VALID,110,VALID,1.0418,
2010-09-19, 01:55:05,VALID,999.456,VALID,0,VALID,87.115,VALID,0,VALID,23.2915,VALID,115,VALID,1.04531,
2010-09-19, 01:56:05,VALID,999.466,VALID,0,VALID,86.7946,VALID,0,VALID,23.3092,VALID,117,VALID,0.923437,
2010-09-19, 01:57:05,VALID,999.437,VALID,0,VALID,86.6801,VALID,0,VALID,23.3695,VALID,117,VALID,0.873828,
2010-09-19, 01:58:05,VALID,999.463,VALID,0,VALID,86.6038,VALID,0,VALID,23.389,VALID,117,VALID,0.883984,
2010-09-19, 01:59:05,VALID,999.485,VALID,0,VALID,86.2834,VALID,0,VALID,23.3872,VALID,117,VALID,0.866406,
2010-09-19, 02:00:05,VALID,999.523,VALID,0,VALID,86.2529,VALID,0,VALID,23.4475,VALID,117,VALID,0.738281,
2010-09-19, 02:01:05,VALID,999.519,VALID,0,VALID,86.2376,VALID,0,VALID,23.4475,VALID,117,VALID,0.696875,
2010-09-19, 02:02:05,VALID,999.542,VALID,0,VALID,86.4589,VALID,0,VALID,23.4475,VALID,117,VALID,0.444141,
2010-09-19, 02:03:05,VALID,999.534,VALID,0,VALID,86.4131,VALID,0,VALID,23.4475,VALID,117,VALID,0.369922,
2010-09-19, 02:04:05,VALID,999.486,VALID,0,VALID,86.5657,VALID,0,VALID,23.4688,VALID,117,VALID,0.203516,
2010-09-19, 02:05:05,VALID,999.488,VALID,0,VALID,86.6496,VALID,0,VALID,23.428,VALID,117,VALID,0.0648438,
2010-09-19, 02:06:05,VALID,999.455,VALID,0,VALID,86.848,VALID,0,VALID,23.4085,VALID,117,VALID,0.128516,
2010-09-19, 02:07:05,VALID,999.452,VALID,0,VALID,86.848,VALID,0,VALID,23.428,VALID,117,VALID,0.285937,
2010-09-19, 02:08:05,VALID,999.444,VALID,0,VALID,86.8861,VALID,0,VALID,23.4085,VALID,117,VALID,0.26875,
2010-09-19, 02:09:05,VALID,999.421,VALID,0,VALID,87.1226,VALID,0,VALID,23.428,VALID,117,VALID,0.158594,
2010-09-19, 02:10:05,VALID,999.439,VALID,0,VALID,87.0997,VALID,0,VALID,23.4085,VALID,117,VALID,0,
2010-09-19, 02:11:05,VALID,999.409,VALID,0,VALID,87.5957,VALID,0,VALID,23.428,VALID,117,VALID,0.1,
2010-09-19, 02:12:05,VALID,999.397,VALID,0,VALID,87.1608,VALID,0,VALID,23.4085,VALID,117,VALID,0.425781,
2010-09-19, 02:13:05,VALID,999.346,VALID,0,VALID,87.382,VALID,0,VALID,23.4085,VALID,117,VALID,0.366016,
2010-09-19, 02:14:05,VALID,999.32,VALID,0,VALID,87.588,VALID,0,VALID,23.4067,VALID,88,VALID,0.667578,
2010-09-19, 02:15:05,VALID,999.281,VALID,0,VALID,87.733,VALID,0,VALID,23.4475,VALID,88,VALID,0.415625,
2010-09-19, 02:16:05,VALID,999.227,VALID,0,VALID,87.878,VALID,0,VALID,23.428,VALID,88,VALID,0.299609,
2010-09-19, 02:17:05,VALID,999.189,VALID,0,VALID,87.8017,VALID,0,VALID,23.4263,VALID,88,VALID,0.679688,
2010-09-19, 02:18:05,VALID,999.172,VALID,0,VALID,87.8932,VALID,0,VALID,23.4475,VALID,75,VALID,0.685547,
2010-09-19, 02:19:05,VALID,999.154,VALID,0,VALID,88.1145,VALID,0,VALID,23.4475,VALID,42,VALID,0.901953,
2010-09-19, 02:20:05,VALID,999.142,VALID,0,VALID,88.1374,VALID,0,VALID,23.4475,VALID,28,VALID,0.886719,
2010-09-19, 02:21:05,VALID,999.123,VALID,0,VALID,88.1755,VALID,0,VALID,23.428,VALID,25,VALID,0.864062,
2010-09-19, 02:22:05,VALID,999.133,VALID,0,VALID,88.206,VALID,0,VALID,23.428,VALID,25,VALID,0.703125,
2010-09-19, 02:23:05,VALID,999.125,VALID,0,VALID,88.1679,VALID,0,VALID,23.428,VALID,25,VALID,0.632813,
2010-09-19, 02:24:05,VALID,999.141,VALID,0,VALID,87.8703,VALID,0,VALID,23.428,VALID,24,VALID,0.649219,
2010-09-19, 02:25:05,VALID,999.165,VALID,0,VALID,87.9161,VALID,0,VALID,23.4458,VALID,23,VALID,0.435937,
2010-09-19, 02:26:05,VALID,999.175,VALID,0,VALID,87.6949,VALID,0,VALID,23.4671,VALID,7,VALID,0.650781,
2010-09-19, 02:27:05,VALID,999.192,VALID,0,VALID,87.6872,VALID,0,VALID,23.5061,VALID,3,VALID,0.329297,
2010-09-19, 02:28:05,VALID,999.222,VALID,0,VALID,87.9543,VALID,0,VALID,23.5256,VALID,3,VALID,0.310156,
2010-09-19, 02:29:05,VALID,999.247,VALID,0,VALID,87.7559,VALID,0,VALID,23.5256,VALID,3,VALID,0.178516,
2010-09-19, 02:30:05,VALID,999.303,VALID,0,VALID,87.7788,VALID,0,VALID,23.5256,VALID,3,VALID,0,
2010-09-19, 02:31:05,VALID,999.3,VALID,0,VALID,87.878,VALID,0,VALID,23.5043,VALID,3,VALID,0,
2010-09-19, 02:32:05,VALID,999.342,VALID,0,VALID,87.7635,VALID,0,VALID,23.5061,VALID,3,VALID,0,
2010-09-19, 02:33:05,VALID,999.324,VALID,0,VALID,88.1908,VALID,0,VALID,23.5256,VALID,3,VALID,0,
2010-09-19, 02:34:05,VALID,999.363,VALID,0,VALID,88.145,VALID,0,VALID,23.5256,VALID,3,VALID,0.150391,
2010-09-19, 02:35:05,VALID,999.369,VALID,0,VALID,88.3357,VALID,0,VALID,23.5469,VALID,3,VALID,0.173438,
2010-09-19, 02:36:05,VALID,999.373,VALID,0,VALID,88.4426,VALID,0,VALID,23.5256,VALID,3,VALID,0,
2010-09-19, 02:37:05,VALID,999.38,VALID,0,VALID,88.5112,VALID,0,VALID,23.5256,VALID,3,VALID,0,
2010-09-19, 02:38:05,VALID,999.42,VALID,0,VALID,88.6638,VALID,0,VALID,23.5238,VALID,3,VALID,0.000390625,
2010-09-19, 02:39:05,VALID,999.433,VALID,0,VALID,88.6638,VALID,0,VALID,23.5256,VALID,77,VALID,0.562891,
2010-09-19, 02:40:05,VALID,999.482,VALID,0,VALID,88.0458,VALID,0,VALID,23.5451,VALID,154,VALID,0.901953,
2010-09-19, 02:41:05,VALID,999.459,VALID,0,VALID,87.672,VALID,0,VALID,23.6036,VALID,137,VALID,1.11211,
2010-09-19, 02:42:05,VALID,999.478,VALID,0,VALID,87.1303,VALID,0,VALID,23.6622,VALID,145,VALID,1.53359,
2010-09-19, 02:43:05,VALID,999.481,VALID,0,VALID,87.0082,VALID,0,VALID,23.7207,VALID,145,VALID,1.13711,
2010-09-19, 02:44:05,VALID,999.468,VALID,0,VALID,87.26,VALID,0,VALID,23.7793,VALID,133,VALID,0.612891,
2010-09-19, 02:45:05,VALID,999.464,VALID,0,VALID,87.0997,VALID,0,VALID,23.7579,VALID,133,VALID,0.725781,
2010-09-19, 02:46:05,VALID,999.469,VALID,0,VALID,86.9014,VALID,0,VALID,23.7988,VALID,124,VALID,0.780078,
2010-09-19, 02:47:05,VALID,999.461,VALID,0,VALID,86.5046,VALID,0,VALID,23.7988,VALID,135,VALID,0.719531,
2010-09-19, 02:48:05,VALID,999.467,VALID,0,VALID,86.4131,VALID,0,VALID,23.8183,VALID,131,VALID,0.582422,
2010-09-19, 02:49:05,VALID,999.463,VALID,0,VALID,86.5962,VALID,0,VALID,23.8165,VALID,131,VALID,0.424219,
2010-09-19, 02:50:05,VALID,999.449,VALID,0,VALID,86.5199,VALID,0,VALID,23.8573,VALID,131,VALID,0.54375,
2010-09-19, 02:51:05,VALID,999.442,VALID,0,VALID,86.1689,VALID,0,VALID,23.8573,VALID,131,VALID,0.525,
2010-09-19, 02:52:05,VALID,999.436,VALID,0,VALID,85.6349,VALID,0,VALID,23.875,VALID,131,VALID,0.433203,
2010-09-19, 02:53:05,VALID,999.429,VALID,0,VALID,85.406,VALID,0,VALID,23.8945,VALID,131,VALID,0.522266,
2010-09-19, 02:54:05,VALID,999.403,VALID,0,VALID,84.7956,VALID,0.112286,VALID,23.914,VALID,131,VALID,0.572656,
2010-09-19, 02:55:05,VALID,999.371,VALID,0,VALID,84.3836,VALID,0,VALID,23.9531,VALID,136,VALID,0.377344,
2010-09-19, 02:56:05,VALID,999.33,VALID,0,VALID,84.4446,VALID,0,VALID,23.9921,VALID,136,VALID,0.117188,
2010-09-19, 02:57:05,VALID,999.315,VALID,0,VALID,84.437,VALID,0.112286,VALID,24.0116,VALID,136,VALID,0.132422,
2010-09-19, 02:58:05,VALID,999.271,VALID,0,VALID,85.1618,VALID,0.112286,VALID,24.0116,VALID,136,VALID,0,
2010-09-19, 02:59:05,VALID,999.263,VALID,0,VALID,86.1918,VALID,0,VALID,23.9903,VALID,136,VALID,0.372656,
2010-09-19, 03:00:05,VALID,999.236,VALID,0,VALID,86.4131,VALID,0.112286,VALID,24.0098,VALID,136,VALID,0.427734,
2010-09-19, 03:01:05,VALID,999.197,VALID,0,VALID,85.3602,VALID,0,VALID,23.9903,VALID,136,VALID,0.337109,
2010-09-19, 03:02:05,VALID,999.189,VALID,0,VALID,86.0469,VALID,0,VALID,24.0116,VALID,136,VALID,0.294531,
2010-09-19, 03:03:05,VALID,999.169,VALID,0,VALID,86.4283,VALID,0.112286,VALID,24.0311,VALID,136,VALID,0.405859,
2010-09-19, 03:04:05,VALID,999.204,VALID,0,VALID,86.9166,VALID,0.112286,VALID,24.0116,VALID,136,VALID,0.464453,
2010-09-19, 03:05:05,VALID,999.199,VALID,0,VALID,87.6186,VALID,0.112286,VALID,23.9708,VALID,50,VALID,0.884375,
2010-09-19, 03:06:05,VALID,999.178,VALID,0,VALID,88.0153,VALID,0.112286,VALID,23.9726,VALID,50,VALID,0.971875,
2010-09-19, 03:07:05,VALID,999.205,VALID,0,VALID,88.3281,VALID,0,VALID,23.9159,VALID,50,VALID,0.684375,
2010-09-19, 03:08:05,VALID,999.274,VALID,0,VALID,88.0611,VALID,0,VALID,23.875,VALID,50,VALID,0.812109,
2010-09-19, 03:09:05,VALID,999.316,VALID,0,VALID,87.3897,VALID,0,VALID,23.8378,VALID,50,VALID,0.85,
2010-09-19, 03:10:05,VALID,999.327,VALID,0,VALID,88.3434,VALID,0,VALID,23.8573,VALID,64,VALID,0.928125,
2010-09-19, 03:11:05,VALID,999.382,VALID,0,VALID,88.0992,VALID,0,VALID,23.8768,VALID,66,VALID,1.25312,
2010-09-19, 03:12:05,VALID,999.359,VALID,0,VALID,88.6028,VALID,0,VALID,23.8963,VALID,77,VALID,1.14609,
2010-09-19, 03:13:05,VALID,999.326,VALID,0,VALID,88.8927,VALID,0,VALID,23.8963,VALID,92,VALID,1.39805,
2010-09-19, 03:14:05,VALID,999.331,VALID,0,VALID,89.2284,VALID,0,VALID,23.8768,VALID,98,VALID,1.12305,
2010-09-19, 03:15:05,VALID,999.318,VALID,0,VALID,89.5183,VALID,0,VALID,23.8768,VALID,101,VALID,0.939453,
2010-09-19, 03:16:05,VALID,999.351,VALID,0,VALID,89.587,VALID,0,VALID,23.8573,VALID,107,VALID,0.774219,
2010-09-19, 03:17:05,VALID,999.318,VALID,0,VALID,89.5565,VALID,0,VALID,23.8183,VALID,108,VALID,0.723047,
2010-09-19, 03:18:05,VALID,999.338,VALID,0,VALID,89.442,VALID,0,VALID,23.8183,VALID,112,VALID,0.553125,
2010-09-19, 03:19:05,VALID,999.349,VALID,0,VALID,89.4802,VALID,0,VALID,23.7988,VALID,112,VALID,0.258203,
2010-09-19, 03:20:05,VALID,999.384,VALID,0,VALID,89.1216,VALID,0,VALID,23.7988,VALID,116,VALID,0.770703,
2010-09-19, 03:21:05,VALID,999.373,VALID,0,VALID,88.9309,VALID,0,VALID,23.7988,VALID,142,VALID,0.750391,
2010-09-19, 03:22:05,VALID,999.38,VALID,0,VALID,88.7859,VALID,0,VALID,23.797,VALID,142,VALID,0.747656,
2010-09-19, 03:23:05,VALID,999.361,VALID,0,VALID,88.5646,VALID,0,VALID,23.8165,VALID,154,VALID,1.00508,
2010-09-19, 03:24:05,VALID,999.378,VALID,0,VALID,88.1603,VALID,0,VALID,23.836,VALID,152,VALID,1.04219,
2010-09-19, 03:25:05,VALID,999.377,VALID,0,VALID,88.1374,VALID,0,VALID,23.875,VALID,150,VALID,1.35664,
2010-09-19, 03:26:05,VALID,999.397,VALID,0,VALID,88.0306,VALID,0,VALID,23.914,VALID,140,VALID,1.98164,
2010-09-19, 03:27:05,VALID,999.389,VALID,0,VALID,87.9314,VALID,0,VALID,23.9336,VALID,137,VALID,2.00312,
2010-09-19, 03:28:05,VALID,999.396,VALID,0,VALID,87.7101,VALID,0,VALID,23.9531,VALID,132,VALID,2.34531,
2010-09-19, 03:29:05,VALID,999.408,VALID,0,VALID,87.6033,VALID,0,VALID,24.0134,VALID,129,VALID,2.77969,
2010-09-19, 03:30:05,VALID,999.406,VALID,0,VALID,87.6491,VALID,0,VALID,24.0116,VALID,129,VALID,2.07617,
2010-09-19, 03:31:05,VALID,999.382,VALID,0,VALID,87.115,VALID,0,VALID,24.0897,VALID,108,VALID,2.53281,
2010-09-19, 03:32:05,VALID,999.403,VALID,0,VALID,86.8861,VALID,0,VALID,24.2067,VALID,120,VALID,2.50859,
2010-09-19, 03:33:05,VALID,999.396,VALID,0,VALID,86.4512,VALID,0,VALID,24.3433,VALID,113,VALID,3.04531,
2010-09-19, 03:34:05,VALID,999.4,VALID,0,VALID,87.0769,VALID,0.112286,VALID,24.4,VALID,109,VALID,4.10508,
2010-09-19, 03:35:05,VALID,999.382,VALID,0.5,VALID,87.6872,VALID,0,VALID,24.3629,VALID,105,VALID,4.32773,
2010-09-19, 03:36:05,VALID,999.438,VALID,0.5,VALID,88.0992,VALID,0,VALID,24.2244,VALID,99,VALID,3.24922,
2010-09-19, 03:37:05,VALID,999.456,VALID,0,VALID,89.0071,VALID,0,VALID,24.111,VALID,81,VALID,3.1293,
2010-09-19, 03:38:05,VALID,999.495,VALID,0.5,VALID,89.8159,VALID,0,VALID,24.0134,VALID,90,VALID,2.07383,
2010-09-19, 03:39:05,VALID,999.492,VALID,0,VALID,90.2431,VALID,0,VALID,23.9159,VALID,82,VALID,2.26875,
2010-09-19, 03:40:05,VALID,999.457,VALID,0,VALID,90.4263,VALID,0,VALID,23.8378,VALID,84,VALID,3.31367,
2010-09-19, 03:41:05,VALID,999.442,VALID,0.5,VALID,90.4263,VALID,0,VALID,23.7793,VALID,91,VALID,2.27148,
2010-09-19, 03:42:05,VALID,999.436,VALID,0,VALID,90.5636,VALID,0,VALID,23.7012,VALID,105,VALID,2.53242,
2010-09-19, 03:43:05,VALID,999.413,VALID,0,VALID,90.762,VALID,0,VALID,23.6622,VALID,96,VALID,2.02227,
2010-09-19, 03:44:05,VALID,999.366,VALID,0,VALID,90.762,VALID,0,VALID,23.5841,VALID,76,VALID,1.92148,
2010-09-19, 03:45:05,VALID,999.35,VALID,0,VALID,90.556,VALID,0,VALID,23.5061,VALID,87,VALID,2.59805,
2010-09-19, 03:46:05,VALID,999.341,VALID,0.5,VALID,90.7391,VALID,0,VALID,23.4475,VALID,82,VALID,1.475,